Location: Trieste
(45.6490°N, 13.7800°E)
Time: 09:12:51
(UTC+01:00)

ISS - Visible Passes

Search period start: 22 January 2019 00:00
Search period end: 01 February 2019 00:00
Orbit: 404 x 410 km, 51.6° (Epoch: 23 January)

Date Brightness Start Highest point End Pass type
(mag) Time Alt. Az. Time Alt. Az. Time Alt. Az.
22 Jan -1.4 17:55:56 10° SE 17:56:21 10° SE 17:56:45 10° SE visible
22 Jan -1.2 19:29:02 10° SW 19:30:01 18° SW 19:30:01 18° SW visible
23 Jan -3.1 18:37:57 10° SSW 18:41:03 38° SE 18:41:04 38° SE visible
24 Jan -2.2 17:47:10 10° SSW 17:49:50 23° SE 17:52:02 13° E visible
24 Jan -1.9 19:22:52 10° WSW 19:24:46 31° W 19:24:46 31° W visible
25 Jan -3.9 18:31:27 10° WSW 18:34:46 84° SSE 18:35:40 45° ENE visible
26 Jan -3.3 17:40:13 10° SW 17:43:25 49° SE 17:46:29 11° ENE visible
26 Jan -2.2 19:16:55 10° W 19:19:12 32° NW 19:19:12 32° NW visible
27 Jan -3.3 18:25:19 10° W 18:28:33 52° NNW 18:29:59 28° NE visible
27 Jan -0.3 20:02:39 10° WNW 20:02:42 10° WNW 20:02:42 10° WNW visible
28 Jan -3.7 17:33:48 10° WSW 17:37:06 79° NNW 17:40:25 10° ENE visible
28 Jan -2.1 19:11:00 10° WNW 19:13:25 28° NNW 19:13:25 28° NNW visible
29 Jan -2.7 18:19:20 10° W 18:22:24 35° NNW 18:24:07 20° NE visible
29 Jan -0.5 19:56:34 10° WNW 19:56:49 12° NW 19:56:49 12° NW visible
30 Jan -2.2 19:05:00 10° WNW 19:07:29 27° NNW 19:07:29 27° NNW visible
31 Jan -2.4 18:13:21 10° WNW 18:16:17 28° N 18:18:09 17° NE visible
31 Jan -0.8 19:50:17 10° NW 19:50:52 14° NW 19:50:52 14° NW visible
